Location: Grand Lay
(47.3253°N, 0.9468°E)
Time: 01:07:05
(UTC+00:00)

Cosmos 1408 Rocket - Pass Details

Date: 18 January 2026
Orbit: 593 x 623 km, 82.6° (Epoch: 6 February)

Event Time Altitude Azimuth Distance (km) Brightness Sun altitude
Exits shadow 05:28:02 62° 291° (WNW) 682 3.4 -21.4°
Drops below altitude 10° 05:32:11 10° 3° (N) 1,950 6.1 -20.7°
Sets 05:34:25 0° 7° (N) 2,854 7.0 -20.3°
